Location: Unspecified
(48.7170°N, 0.0000°E)
Time: 11:08:45
(UTC+00:00)

ISS - Pass Details

Date: 31 May 2019
Orbit: 408 x 418 km, 51.6° (Epoch: 17 June)

Event Time Altitude Azimuth Distance (km) Brightness Sun altitude
Rises 21:15:05 0° 290° (WNW) 2,357 1.1 -10.5°
Reaches altitude 10° 21:17:13 10° 286° (WNW) 1,494 -0.1 -10.8°
Maximum altitude 21:20:28 50° 210° (SSW) 537 -3.4 -11.1°
Enters shadow 21:22:39 19° 139° (SE) 1,077 -2.3 -11.3°
